Location: Norton
(51.3000°N, 0.8167°E)
Time: 17:28:48
(UTC+00:00)

Gbstr 26 Del rocket - Pass Details

Date: 03 March 2021
Orbit: 492 x 1264 km, 51.8° (Epoch: 13 April)

Event Time Altitude Azimuth Distance (km) Brightness Sun altitude
Rises 19:53:01 0° 275° (W) 2,867 7.9 -21.2°
Reaches altitude 10° 19:55:06 10° 276° (W) 2,050 6.8 -21.5°
Maximum altitude 19:59:50 86° 3° (N) 756 3.4 -22.2°
Enters shadow 20:01:10 53° 90° (E) 956 3.6 -22.4°
